Preview of NWS' New Version of Forecast
This preview is not operational and should not be used for support decisions.

Regional Weather Roundup (RWR)

Issued by National Weather Service (NWS)

                            
000
ASUS44 KMEG 222200
RWRTN 
TENNESSEE HOURLY STATE WEATHER ROUNDUP
NATIONAL WEATHER SERVICE MEMPHIS TN
500 PM CDT MON JUL 22 2019

TNZ002-004-019-021-049-052-054-088>092-222300-
WEST TENNESSEE
  
CITY           SKY/WX    TMP DP  RH WIND       PRES   REMARKS
MEMPHIS INTL   PTSUNNY   82  75  79 NE10      29.91F                  
NWS MEMPHIS      N/A     79 N/A N/A MISG        N/A                   
JACKSON        FAIR      76  74  93 NW6       29.92F                  
DYERSBURG      PTSUNNY   78  73  84 N13       29.94S                  
$$

TNZ008-025-027-028-033-062-065-066-222300-
NORTH MIDDLE TENNESSEE
  
CITY           SKY/WX    TMP DP  RH WIND       PRES   REMARKS
NASHVILLE      LGT RAIN  74  71  91 NW6       29.93F                  
CLARKSVILLE    RAIN      75  73  93 NE6       29.91F FOG              
SMYRNA         RAIN      72  71  97 NW8       29.93F                  
CROSSVILLE     PTSUNNY   75  70  84 N7        29.97F                  
$$

TNZ061-075-076-078-094-096-097-222300-
SOUTH MIDDLE TENNESSEE
  
CITY           SKY/WX    TMP DP  RH WIND       PRES   REMARKS
$$

TNZ017-018-042-046-047-222300-
NORTHEAST TENNESSEE
  
CITY           SKY/WX    TMP DP  RH WIND       PRES   REMARKS
TRI CITIES     LGT RAIN  72  70  93 SE3       29.97                   
$$

TNZ012-013-036-069-073-074-222300-
CENTRAL EAST TENNESSEE
  
CITY           SKY/WX    TMP DP  RH WIND       PRES   REMARKS
KNOXVILLE      TSTM      71  70  96 E10       29.95R VSB 3/4          
OAK RIDGE      LGT RAIN  75  70  84 CALM      29.94S                  
$$

TNZ083-085-099-222300-
SOUTHEAST TENNESSEE
  
CITY           SKY/WX    TMP DP  RH WIND       PRES   REMARKS
CHATTANOOGA    FAIR      90  69  50 SW13G20   29.90F HX  94           
$$

SKY/WX REPORTED AS FAIR MEANS FEW OR NO CLOUDS BELOW
12 THOUSAND FEET.